View Sortable Currents For Network
ASOSAWOSCoCoRaHSCOOPDCPISUSM
SchoolNetOtherSCANMy FavoritesBy StateRWIS
RWIS SurfaceRWIS TrafficRWIS SoilBy NWS WFO

Current AWOS Conditions

** This page will automatically refresh every five minutes.
Sorted by: (Dew Point)     Click on a column to sort it.

Add ID: Name: Ob Time   Wind [knots]   Rainfall
Temp (Hi / Lo) DewP Feels RH% Dir Speed Peak Gust
@ Time
Alti Vsby Hour Today
CINCARROLL10:40 PM M(0/0) M M M 100 818 @ 01:40 AM 30.09 5 0
CCYCHARLES CITY10:45 PM 55(61/48) 52 54 90 90 925 @ 05:35 AM 30.13 10 0 0.13
CAVCLARION10:40 PM 57(61/50) 52 56 83 90 1022 @ 01:15 AM 30.12 10 0
FXYForest City10:40 PM 55(59/48) 52 54 90 90 519 @ 01:20 AM 30.12 10 0 0.0001
IIBINDEPENDENCE10:40 PM 55(65/53) 53 54 93 100 1019 @ 08:50 AM 30.13 7 0 0.0001
DEHDECORAH10:40 PM 55(57/48) 54 54 96 90 519 @ 12:00 AM 30.15 10 0
OLZOELWEIN10:40 PM 55(61/52) 54 54 96 100 1121 @ 12:40 AM 30.14 10 0 0.11
AXAALGONA10:40 PM 57(59/48) 54 56 90 130 521 @ 03:10 AM 30.12 10 0
CWICLINTON10:34 PM 57(67/51) 54 56 90 80 1221 @ 07:44 AM 30.15 10 0 0.13
EBSWebster City10:35 PM 57(61/52) 54 56 90 100 1020 @ 03:25 AM 30.09 10 0 0.02
IFAIowa Falls10:45 PM 57(62/51) 54 56 90 90 1020 @ 02:25 AM 30.13 10 0
HPTHampton10:35 PM 55(57/50) 54 54 96 110 916 @ 01:35 AM 30.13 10 0 0.05
PEAPELLA10:40 PM 59(71/59) 55 58 87 70 59 @ 04:40 AM 30.1 10 0
MUTMUSCATINE10:40 PM 63(72/63) 55 62 75 80 720 @ 03:10 PM 30.11 10 0
LRJLE MARS10:40 PM 57(61/52) 55 93 0 016 @ 12:10 AM 30.1 6 0
ORCOrange City10:40 PM 55(63/52) 55 55 100 100 516 @ 08:40 AM 30.1 5 0.07 0.33
BNWBOONE MUNI10:40 PM 57(61/52) 55 57 93 90 1020 @ 02:55 AM 30.09 5 0
OXVKnoxville10:40 PM 61(70/59) 55 60 81 70 815 @ 08:10 PM 30.07 9 0
SLBStorm Lake10:40 PM 55(59/48) 55 55 100 70 823 @ 06:30 AM 30.1 3 0 0.06
SHLSHELDON10:40 PM 55(63/50) 55 55 100 100 520 @ 12:55 AM 30.09 3 0 0.02
FFLFAIRFIELD10:40 PM 63(73/63) 55 62 75 90 1117 @ 01:00 PM 30.08 10 0 0.12
VTIVINTON10:40 PM 58(65/58) 55 57 90 90 817 @ 10:10 AM 30.13 7 0
FODFORT DODGE10:16 PM 57(59/51) 55 57 93 80 1016 @ 10:45 AM 30.1 10 0 0.31
CKPCherokee10:35 PM 55(60/50) 55 55 100 60 315 @ 06:45 AM 30.1 5 0 0.42
IKVANKENY10:40 PM 59(64/55) 55 58 87 70 715 @ 02:55 AM 30.1 9 0
MXOMONTICELLO MUNI10:40 PM 57(66/54) 55 57 93 90 521 @ 07:40 AM 30.13 10 0 0.05
TNUNEWTON MUNI10:40 PM 57(64/57) 55 57 93 70 1118 @ 05:40 AM 30.1 4 0
GGIGrinnell10:40 PM 57(66/57) 55 57 93 70 917 @ 06:20 AM 30.11 5 0
MPZMOUNT PLEASANT10:37 PM 61(72/59) 57 61 87 80 633 @ 03:17 AM 30.1 10 0 0.25
ADUAUDUBON10:40 PM 59(64/52) 57 59 93 100 816 @ 01:00 AM 30.09 2.5 0
CNCCHARITON10:40 PM 61(70/59) 57 61 87 60 1112 @ 01:10 AM 30.07 8 0 0.06
EOKKEOKUK MUNI10:40 PM 64(75/63) 57 64 78 80 926 @ 12:15 PM 30.07 10 0 0.0001
FSWFORT MADISON10:40 PM 64(77/64) 57 64 78 80 723 @ 12:50 PM 30.1 10 0
OOAOskaloosa10:35 PM 60(71/60) 57 60 90 80 816 @ 07:35 PM 30.09 10 0
PROPerry10:35 PM 59(66/54) 58 59 96 60 519 @ 02:15 AM 30.09 5 0 0.0001
AWGWASHINGTON10:40 PM 61(72/61) 59 61 93 70 919 @ 02:50 PM 30.11 10 0
DNSDENISON10:40 PM 59(59/52) 59 60 100 110 618 @ 07:35 AM 30.1 4 0 0.12
I75Osceola10:40 PM 63(69/59) 59 63 87 50 914 @ 07:05 AM 30.07 10 0 0.05
CBFCOUNCIL BLUFFS10:40 PM 59(59/55) 59 60 100 360 416 @ 11:10 AM 30.07 5 0 0.14
CSQCRESTON10:40 PM 63(66/55) 61 64 93 60 817 @ 03:40 AM 30.08 3 0
RDKRED OAK10:40 PM 64(70/55) 61 90 0 030 @ 07:50 AM 30.06 9 0
HNRHARLAN10:40 PM 61(63/54) 61 62 100 418 @ 03:00 AM 30.1 3 0
AIOATLANTIC10:40 PM 63(68/54) 61 64 93 60 618 @ 02:30 PM 30.07 6 0
ICLCLARINDA10:40 PM 66(72/57) 63 67 90 100 611 @ 02:30 PM 30.07 9 0
SDASHENANDOAH MUNI10:40 PM 66(72/57) 63 90 0 016 @ 02:00 PM 30.06 10 0
TVKCenterville10:25 PM 66(72/59) 66 100 0 018 @ 01:30 AM 30.07 10 0 0.09